Date,TemperatureHighF,TemperatureAvgF,TemperatureLowF,DewpointHighF,DewpointAvgF,DewpointLowF,HumidityHigh,HumidityAvg,HumidityLow,PressureMaxIn,PressureMinIn,WindSpeedMaxMPH,WindSpeedAvgMPH,GustSpeedMaxMPH,PrecipitationSumIn
2013-2-2,54.0,42.9,30.2,28.8,27.2,24.5,82,55,36,30.36,30.24,12,2,12,0.00
2013-2-3,61.9,43.0,30.2,28.1,22.9,18.2,79,48,26,30.27,30.15,14,3,14,0.00
2013-2-4,55.9,44.7,39.4,25.6,20.0,16.2,41,37,28,30.18,29.97,15,2,15,0.00
2013-2-5,46.6,39.8,32.5,27.6,20.6,14.8,76,47,34,30.03,29.91,17,5,17,0.00
2013-2-6,47.1,37.5,32.0,25.5,20.8,16.8,75,52,34,30.09,29.91,17,5,17,0.00
2013-2-7,42.3,33.9,27.9,26.8,21.1,14.8,88,61,39,30.03,29.88,17,2,17,0.00
2013-2-8,47.8,32.8,24.1,23.7,18.8,13.4,86,60,30,30.12,30.03,12,0,12,0.00
2013-2-9,34.5,23.6,20.7,23.3,13.4,6.2,77,65,49,30.18,30.09,7,0,7,0.00
2013-2-10,52.3,36.7,28.0,26.4,21.5,14.3,86,58,29,30.24,30.18,10,0,10,0.00
2013-2-11,53.6,36.1,26.2,27.1,22.2,15.9,80,59,34,30.30,30.18,11,2,11,0.00
2013-2-12,56.8,39.4,30.9,29.0,26.7,20.2,90,64,31,30.39,30.30,14,2,14,0.00
2013-2-13,51.3,39.5,33.6,30.4,27.9,24.0,84,65,39,30.39,30.33,10,1,10,0.00
2013-2-14,61.9,45.7,29.8,34.2,31.1,27.1,98,61,34,30.45,30.42,10,1,10,0.00
2013-2-15,66.2,45.2,32.0,34.7,31.2,26.1,90,62,30,30.45,30.27,11,1,11,0.00
2013-2-16,52.7,42.5,34.2,27.8,22.5,16.7,62,46,29,30.27,30.15,17,4,17,0.00
2013-2-17,53.6,38.4,24.6,21.6,18.1,12.4,75,47,26,30.15,30.03,10,1,10,0.00
2013-2-18,39.9,33.0,27.5,20.4,17.5,12.9,70,53,34,30.03,29.74,11,1,11,0.00
2013-2-19,47.5,32.2,25.7,22.5,18.6,15.3,77,59,35,29.91,29.68,10,1,10,0.00
2013-2-20,44.8,32.5,24.4,23.1,17.8,12.1,84,56,37,30.00,29.91,10,0,10,0.00
2013-2-21,38.3,30.8,23.5,24.0,20.7,15.9,92,68,41,30.12,30.00,13,3,13,0.00
2013-2-22,41.7,33.1,25.7,34.2,25.9,16.0,98,76,53,30.12,29.85,25,6,25,0.00
2013-2-23,29.5,26.6,23.9,22.4,18.0,16.3,87,70,59,30.27,30.00,7,1,8,0.00
2013-2-24,47.1,31.5,21.2,26.8,19.9,14.3,84,64,39,30.30,30.06,13,4,13,0.00
2013-2-25,43.7,33.8,26.1,32.9,20.4,9.4,98,60,33,30.24,30.00,17,4,17,0.00
2013-2-26,46.9,33.9,22.5,18.8,15.4,10.8,79,50,28,30.27,30.18,15,4,15,0.00
2013-2-27,44.2,37.2,30.4,30.0,19.5,11.4,70,49,39,30.27,30.21,17,4,17,0.00
2013-2-28,50.7,42.0,36.3,38.0,35.4,29.7,93,78,51,30.42,30.21,17,6,17,0.00